C/2023 C2 ( ATLAS )

Japanese version
Home page
Updated on September 27, 2024

---------------------------------------------------------------------

* Profile

Discovery Date February 1, 2023
Magnitude 19.1 mag
Discoverer Asteroid Terrestrial-Impact Last Alert System (ATLAS) search program

* Pictures

* Orbital Elements

Epoch 2024 Oct. 17.0 TT = JDT 2460600.5
T 2024 Nov. 16.81317 TT                                 Rudenko
q   2.3684825            (2000.0)            P               Q
z  +0.0003384      Peri.  357.45793     +0.48931615     +0.59225589
 +/-0.0000005      Node   301.00433     -0.78638806     -0.01771495
e   0.9991985      Incl.   48.31945     -0.37704580     +0.80555518
>From 514 observations 2023 Feb. 1-2024 Aug. 31, mean residual 0".4.

* Finding Charts

* Magnitudes Graph

        m1 = 7.0 + 5 log d + 10.0 log r

---------------------------------------------------------------------

The orbital elements are published on M.P.E.C. 2024-R10.
The charts are made with StellaNavigator Ver.11 (AstroArts).
The magnitudes graphs are made with Comet for Windows.

---------------------------------------------------------------------

Copyright(C) Seiichi Yoshida (comet@aerith.net). All rights reserved.